Weather History for KCUT - June, 2013

Change the Weather History Date:

Friday, June 28, 2013

  Actual Average Record
Temperature  
Mean Temperature 65 °F 63 °F  
Max Temperature 79 °F 76 °F 93 °F (2002)
Min Temperature 51 °F 50 °F 32 °F (1951)
Degree Days  
Heating Degree Days 0 4  
Month to date heating degree days 185 213  
Since 1 June heating degree days 185 213  
Since 1 July heating degree days 8265 8382  
Cooling Degree Days 0 2  
Month to date cooling degree days 9 20  
Year to date cooling degree days 11 21  
Since 1 June cooling degree days 9 20  
Growing Degree Days 16 (Base 50)    
Moisture  
Dew Point 47 °F    
Average Humidity 54    
Maximum Humidity 77    
Minimum Humidity 30    
Precipitation  
Precipitation 0.00 in 0.09 in 1.30 in (2015)
Month to date precipitation 1.65 3.03  
Year to date precipitation 8.18 10.14  
Sea Level Pressure  
Sea Level Pressure 30.14 in    
Wind  
Wind Speed 4 mph (NE)    
Max Wind Speed 12 mph    
Max Gust Speed 18 mph    
Visibility 10 miles    
Events      
T = Trace of Precipitation, MM = Missing Value Source: NWS Daily Summary

Daily Weather History Graph

Daily Weather History Graph

Search for Another Location

Airport or City:

Trip Planner

Search our weather history database for the weather conditions in past years. The results will help you decide how hot, cold, wet, or windy it might be!

Date:

Astronomy

Jun. 28, 2013 Rise Set
Actual Time 5:15 AM MDT 8:40 PM MDT
Civil Twilight 4:39 AM MDT 9:16 PM MDT
Nautical Twilight 3:52 AM MDT 10:03 PM MDT
Astronomical Twilight 2:52 AM MDT 11:02 PM MDT
Moon 11:56 PM MDT (6/28) 11:37 AM MDT (6/28)
Length of Visible Light 16h 37m
Length of Day
15h 25m
Waning Gibbous, 65% of the Moon is Illuminated
Jun 28
Waning Gibbous
Jun 29
Last Quarter
Jul 8
New
Jul 15
First Quarter
Jul 22
Full

Hourly Weather History & Observations

Time (MDT) Temp. Dew Point Humidity Pressure Visibility Wind Dir Wind Speed Gust Speed Precip Events Conditions
12:53 AM 55.9 °F 46.9 °F 72% 30.18 in 10.0 mi Calm Calm - N/A   Clear
1:53 AM 55.0 °F 46.9 °F 74% 30.19 in 10.0 mi NNW 3.5 mph - N/A   Clear
2:53 AM 54.0 °F 46.0 °F 75% 30.19 in 10.0 mi WNW 4.6 mph - N/A   Clear
3:53 AM 55.9 °F 45.0 °F 67% 30.18 in 10.0 mi West 4.6 mph - N/A   Clear
4:53 AM 57.0 °F 45.0 °F 64% 30.17 in 10.0 mi WNW 3.5 mph - N/A   Clear
5:53 AM 59.0 °F 42.1 °F 53% 30.16 in 10.0 mi Calm Calm - N/A   Clear
6:53 AM 64.0 °F 43.0 °F 46% 30.14 in 10.0 mi Calm Calm - N/A   Clear
7:53 AM 70.0 °F 42.1 °F 36% 30.15 in 10.0 mi North 6.9 mph - N/A   Clear
8:53 AM 73.0 °F 43.0 °F 34% 30.15 in 10.0 mi North 5.8 mph - N/A   Scattered Clouds
9:53 AM 73.9 °F 44.1 °F 34% 30.14 in 10.0 mi Variable 3.5 mph - N/A   Mostly Cloudy
10:53 AM 77.0 °F 45.0 °F 32% 30.14 in 10.0 mi Calm Calm - N/A   Overcast
11:53 AM 79.0 °F 45.0 °F 30% 30.14 in 10.0 mi Calm Calm - N/A   Mostly Cloudy
12:53 PM 75.0 °F 50.0 °F 41% 30.15 in 10.0 mi Variable 4.6 mph - N/A   Overcast
1:53 PM 75.9 °F 51.1 °F 42% 30.14 in 10.0 mi SE 5.8 mph - N/A   Mostly Cloudy
2:53 PM 75.9 °F 48.9 °F 38% 30.14 in 10.0 mi East 6.9 mph - N/A   Mostly Cloudy
3:53 PM 75.9 °F 48.0 °F 37% 30.13 in 10.0 mi SE 4.6 mph - N/A   Mostly Cloudy
4:53 PM 78.1 °F 48.9 °F 36% 30.12 in 10.0 mi East 5.8 mph - N/A   Mostly Cloudy
5:53 PM 75.9 °F 50.0 °F 40% 30.10 in 10.0 mi SE 5.8 mph - N/A   Scattered Clouds
6:53 PM 73.9 °F 50.0 °F 43% 30.09 in 10.0 mi East 6.9 mph - N/A   Clear
7:53 PM 71.1 °F 50.0 °F 47% 30.09 in 10.0 mi SE 4.6 mph - N/A   Clear
8:53 PM 64.9 °F 48.9 °F 56% 30.10 in 10.0 mi Calm Calm - N/A   Clear
9:53 PM 63.0 °F 48.9 °F 60% 30.12 in 10.0 mi Calm Calm - N/A   Clear
10:53 PM 61.0 °F 48.9 °F 64% 30.12 in 10.0 mi North 3.5 mph - N/A   Clear
11:53 PM 60.1 °F 50.0 °F 69% 30.11 in 10.0 mi North 3.5 mph - N/A   Clear